EW6800 Weather Reports


time (UTC)temp
C
wind
direction
speed
KPH
gust
KPH
rain 1hr
cm
rain 24hr
cm
rain mn
cm
humidity
%
barometer
mb
20260509091603 11 0 0.0 8.0 0.00 0.03 0.00 62 1016.0
20260509091043 11 311 3.2 8.0 0.00 0.03 0.00 66 1016.0
20260509090543 11 311 4.8 8.0 0.00 0.03 0.00 67 1016.0
20260509090058 11 316 4.8 9.7 0.00 0.03 0.00 69 1016.0
20260509085543 12 316 3.2 12.9 0.00 0.03 0.00 67 1015.9
20260509085048 12 316 8.0 12.9 0.00 0.03 0.00 64 1015.9
20260509084550 12 316 6.4 12.9 0.00 0.03 0.00 64 1015.9
20260509084043 12 310 4.8 14.5 0.00 0.03 0.00 64 1016.0
20260509083543 12 316 6.4 14.5 0.00 0.03 0.00 65 1016.0
20260509083050 12 314 6.4 14.5 0.00 0.03 0.00 65 1016.1
20260509082544 12 331 6.4 12.9 0.00 0.03 0.00 66 1016.1
20260509082044 11 313 6.4 9.7 0.00 0.03 0.00 69 1016.1
20260509081559 10 315 6.4 9.7 0.00 0.03 0.00 74 1016.1
20260509081044 10 321 6.4 9.7 0.00 0.03 0.00 80 1016.2
20260509080543 9 320 6.4 12.9 0.00 0.03 0.00 81 1016.2
20260509080050 8 319 4.8 16.1 0.00 0.03 0.00 85 1016.2
20260509075543 8 319 8.0 16.1 0.00 0.03 0.00 85 1016.3
20260509075044 9 313 8.0 16.1 0.00 0.03 0.00 83 1016.3
20260509074549 10 317 6.4 12.9 0.00 0.03 0.00 80 1016.3
20260509074044 10 319 6.4 12.9 0.00 0.03 0.00 77 1016.3
20260509073544 11 312 4.8 12.9 0.00 0.03 0.00 75 1016.4
20260509073049 10 317 6.4 14.5 0.00 0.03 0.00 76 1016.4
20260509072543 10 312 6.4 14.5 0.00 0.03 0.00 81 1016.4
20260509072044 8 308 8.0 12.9 0.00 0.03 0.00 84 1016.4
20260509071552 8 321 6.4 12.9 0.00 0.03 0.00 86 1016.4
20260509071041 9 309 6.4 12.9 0.00 0.03 0.00 85 1016.5
20260509070544 9 313 6.4 14.5 0.00 0.03 0.00 84 1016.5
20260509070051 8 316 9.7 16.1 0.00 0.03 0.00 86 1016.5
20260509065543 8 319 9.7 17.7 0.00 0.03 0.03 86 1016.6
20260509065043 9 307 11.3 17.7 0.00 0.03 0.03 83 1016.6
20260509064550 10 306 12.9 17.7 0.00 0.03 0.03 79 1016.6
20260509064043 10 303 9.7 16.1 0.00 0.03 0.03 78 1016.7
20260509063544 10 311 6.4 12.9 0.00 0.03 0.03 81 1016.7
20260509063056 9 317 8.0 14.5 0.00 0.03 0.03 82 1016.6
20260509062545 10 314 9.7 16.1 0.00 0.03 0.03 82 1016.7
20260509062044 10 309 9.7 16.1 0.00 0.03 0.03 80 1016.8
20260509061606 11 306 9.7 16.1 0.00 0.03 0.03 78 1016.7
20260509061043 11 306 6.4 12.9 0.00 0.03 0.03 74 1016.8
20260509060541 12 315 8.0 12.9 0.00 0.03 0.03 70 1016.8
20260509060053 11 312 8.0 14.5 0.00 0.03 0.03 72 1016.8
20260509055546 10 314 8.0 14.5 0.00 0.03 0.03 81 1016.8
20260509055043 9 323 8.0 14.5 0.00 0.03 0.03 90 1016.9
20260509054558 8 313 6.4 11.3 0.00 0.03 0.03 95 1017.0
20260509054043 8 315 8.0 11.3 0.00 0.03 0.03 95 1017.0
20260509053544 7 320 6.4 9.7 0.00 0.03 0.03 95 1017.0
20260509053058 7 312 3.2 11.3 0.00 0.03 0.03 95 1017.0
20260509052543 7 315 4.8 12.9 0.00 0.03 0.03 95 1017.1
20260509052046 7 296 6.4 12.9 0.00 0.03 0.03 95 1017.1
20260509051553 7 296 6.4 12.9 0.00 0.03 0.03 95 1017.1
20260509051049 7 300 6.4 12.9 0.00 0.03 0.03 95 1017.1
20260509050544 7 297 6.4 11.3 0.00 0.03 0.03 95 1017.1
20260509050052 8 302 4.8 12.9 0.00 0.03 0.03 95 1017.0
20260509045544 8 304 6.4 12.9 0.00 0.03 0.03 95 1017.0
20260509045044 8 308 8.0 12.9 0.00 0.03 0.03 95 1016.9
20260509044556 8 309 8.0 12.9 0.00 0.03 0.03 95 1016.9
20260509044045 8 321 8.0 12.9 0.00 0.03 0.03 95 1016.9
20260509043547 8 306 6.4 12.9 0.00 0.03 0.03 95 1017.0
20260509043059 8 306 6.4 12.9 0.00 0.03 0.03 95 1016.9
20260509042543 8 304 8.0 14.5 0.00 0.03 0.03 95 1016.8
20260509042046 8 305 8.0 14.5 0.00 0.03 0.03 95 1016.8
20260509041551 8 302 8.0 14.5 0.00 0.03 0.03 94 1016.8
20260509041044 8 314 6.4 12.9 0.00 0.03 0.03 94 1016.8
20260509040543 8 309 6.4 12.9 0.00 0.03 0.03 95 1016.8
20260509040051 8 304 8.0 12.9 0.00 0.03 0.03 94 1016.8
20260509035543 8 302 6.4 12.9 0.00 0.03 0.03 94 1016.8
20260509035042 8 312 6.4 12.9 0.00 0.03 0.03 94 1016.7
20260509034602 8 313 6.4 12.9 0.00 0.03 0.03 94 1016.6
20260509034044 8 296 6.4 12.9 0.00 0.03 0.03 94 1016.6
20260509033545 8 306 6.4 12.9 0.00 0.03 0.03 94 1016.7
20260509033055 8 309 6.4 11.3 0.00 0.03 0.03 94 1016.6
20260509032543 9 323 6.4 12.9 0.00 0.03 0.03 93 1016.7
20260509032047 9 294 6.4 12.9 0.00 0.03 0.03 93 1016.6
20260509031553 9 304 4.8 11.3 0.00 0.03 0.03 93 1016.7
20260509031043 9 304 4.8 12.9 0.00 0.03 0.03 93 1016.6
20260509030543 9 309 4.8 12.9 0.00 0.03 0.03 92 1016.6
20260509030053 10 315 6.4 12.9 0.00 0.03 0.03 92 1016.6
20260509025543 10 311 6.4 11.3 0.00 0.03 0.03 91 1016.6
20260509025045 10 301 4.8 9.7 0.00 0.03 0.03 90 1016.6
20260509024553 10 306 4.8 11.3 0.00 0.03 0.03 90 1016.6
20260509024044 11 313 6.4 11.3 0.00 0.03 0.03 90 1016.6
20260509023543 11 304 4.8 11.3 0.00 0.03 0.03 89 1016.5
20260509023055 11 311 4.8 11.3 0.00 0.03 0.03 89 1016.6
20260509022545 11 300 4.8 8.0 0.00 0.03 0.03 89 1016.6
20260509022045 11 316 4.8 9.7 0.00 0.03 0.03 88 1016.6
20260509021554 11 312 4.8 11.3 0.00 0.03 0.03 88 1016.5
20260509021133 12 307 4.8 11.3 0.00 0.03 0.03 87 1016.6
20260509020544 12 310 4.8 11.3 0.00 0.03 0.03 86 1016.6
20260509020054 12 304 4.8 11.3 0.00 0.03 0.03 86 1016.6
20260509015543 12 315 4.8 11.3 0.00 0.03 0.03 86 1016.7
20260509015043 12 304 4.8 12.9 0.00 0.03 0.03 85 1016.6
20260509014553 13 300 6.4 12.9 0.00 0.03 0.03 84 1016.7
20260509014043 13 303 6.4 14.5 0.00 0.03 0.03 83 1016.7
20260509013548 13 304 8.0 14.5 0.00 0.03 0.03 83 1016.6
20260509013052 13 302 8.0 12.9 0.00 0.03 0.03 82 1016.6
20260509012545 13 300 6.4 11.3 0.00 0.03 0.03 82 1016.7
20260509012046 14 307 4.8 14.5 0.00 0.03 0.03 82 1016.7
20260509011553 14 298 8.0 14.5 0.00 0.03 0.03 82 1016.7
20260509011044 14 300 8.0 16.1 0.00 0.03 0.03 82 1016.8
20260509010543 14 306 8.0 16.1 0.00 0.03 0.03 82 1016.8
20260509010051 14 296 9.7 16.1 0.00 0.03 0.03 82 1016.8
20260509005543 14 300 8.0 16.1 0.00 0.03 0.03 82 1016.8
20260509005044 14 303 9.7 14.5 0.00 0.03 0.03 82 1016.7
20260509004549 14 306 6.4 14.5 0.00 0.03 0.03 82 1016.8
20260509004044 14 297 8.0 16.1 0.00 0.03 0.03 82 1016.9
20260509003544 14 304 6.4 16.1 0.00 0.03 0.03 82 1017.0
20260509003048 14 296 9.7 16.1 0.00 0.03 0.03 82 1016.9
20260509002543 14 302 11.3 17.7 0.00 0.03 0.03 82 1017.0
20260509002043 14 308 9.7 17.7 0.00 0.03 0.03 81 1017.0
20260509001549 14 298 9.7 17.7 0.00 0.03 0.03 80 1017.1
20260509001044 15 294 11.3 16.1 0.00 0.03 0.03 80 1017.0
20260509000543 15 302 8.0 17.7 0.00 0.03 0.03 79 1017.1
20260509000052 15 308 9.7 17.7 0.00 0.03 0.03 78 1017.0
20260508235543 15 313 12.9 17.7 0.00 0.03 0.03 78 1017.0
20260508235044 15 298 12.9 17.7 0.00 0.03 0.03 78 1017.1
20260508234556 16 315 12.9 17.7 0.00 0.03 0.03 77 1017.1
20260508234045 16 311 12.9 17.7 0.00 0.03 0.03 77 1017.2
20260508233543 16 304 11.3 16.1 0.00 0.03 0.03 77 1017.2
20260508233054 16 296 9.7 14.5 0.00 0.03 0.03 76 1017.2
20260508232546 16 300 9.7 16.1 0.00 0.03 0.03 76 1017.3
20260508232043 16 309 9.7 16.1 0.00 0.03 0.03 76 1017.3
20260508231635 16 306 11.3 16.1 0.00 0.03 0.03 76 1017.3
20260508231044 16 322 9.7 14.5 0.00 0.03 0.03 76 1017.3
20260508230544 16 323 9.7 14.5 0.00 0.03 0.03 77 1017.4
20260508230059 16 306 9.7 17.7 0.00 0.03 0.03 77 1017.4
20260508225543 16 300 9.7 17.7 0.00 0.03 0.03 77 1017.5
20260508225045 16 296 9.7 17.7 0.00 0.03 0.03 77 1017.5
20260508224550 16 307 9.7 17.7 0.00 0.03 0.03 77 1017.6
20260508224043 16 305 11.3 19.3 0.00 0.03 0.03 76 1017.6
20260508223544 16 298 12.9 19.3 0.00 0.03 0.03 76 1017.7
20260508223049 16 307 9.7 16.1 0.00 0.03 0.03 76 1017.7
20260508222544 16 304 9.7 16.1 0.00 0.03 0.03 78 1017.8
20260508222044 16 292 11.3 16.1 0.00 0.03 0.03 77 1017.9
20260508221550 16 284 9.7 14.5 0.00 0.03 0.03 77 1018.0
20260508221044 16 303 8.0 14.5 0.00 0.03 0.03 77 1018.0
20260508220544 16 291 6.4 12.9 0.00 0.03 0.03 77 1018.0
20260508220048 16 296 8.0 12.9 0.00 0.03 0.03 78 1018.1
20260508215543 16 290 6.4 14.5 0.00 0.03 0.03 78 1018.1
20260508215045 16 298 8.0 14.5 0.00 0.03 0.03 78 1018.2
20260508214618 16 306 8.0 14.5 0.00 0.03 0.03 79 1018.2
20260508214047 16 306 8.0 14.5 0.00 0.03 0.03 80 1018.3
20260508213543 16 296 8.0 12.9 0.00 0.03 0.03 79 1018.4
20260508213053 16 305 6.4 14.5 0.00 0.03 0.03 79 1018.3
20260508212543 15 294 6.4 14.5 0.00 0.03 0.03 80 1018.4
20260508212046 15 312 8.0 16.1 0.00 0.03 0.03 80 1018.5
20260508211550 15 296 8.0 16.1 0.00 0.03 0.03 79 1018.5
20260508211044 15 313 11.3 16.1 0.00 0.03 0.03 80 1018.5
20260508210544 15 319 8.0 14.5 0.00 0.03 0.03 80 1018.6
20260508210054 16 306 8.0 14.5 0.00 0.03 0.03 80 1018.6
20260508205543 16 303 8.0 14.5 0.00 0.03 0.03 81 1018.5
20260508205044 15 295 6.4 12.9 0.00 0.03 0.03 81 1018.7
20260508204549 15 299 6.4 12.9 0.00 0.03 0.03 81 1018.7
20260508204043 15 331 4.8 12.9 0.00 0.03 0.03 82 1018.8
20260508203544 15 300 6.4 12.9 0.00 0.03 0.03 83 1018.7
20260508203106 15 313 6.4 12.9 0.00 0.03 0.03 83 1018.7
20260508202544 15 300 6.4 12.9 0.00 0.03 0.03 84 1018.7
20260508202043 14 312 6.4 11.3 0.00 0.03 0.03 85 1018.8
20260508201549 14 331 4.8 14.5 0.00 0.03 0.03 85 1018.7
20260508201043 13 304 6.4 14.5 0.00 0.03 0.03 85 1018.7
20260508200543 13 306 8.0 14.5 0.00 0.03 0.03 85 1018.8
20260508200049 13 300 8.0 16.1 0.00 0.03 0.03 85 1018.8
20260508195543 13 300 9.7 16.1 0.00 0.03 0.03 86 1018.8
20260508195044 13 296 9.7 16.1 0.00 0.03 0.03 85 1018.9
20260508194554 13 296 9.7 16.1 0.00 0.03 0.03 85 1018.8
20260508194043 13 308 8.0 14.5 0.00 0.03 0.03 86 1018.8
20260508193543 13 307 8.0 14.5 0.00 0.03 0.03 87 1018.9
20260508193110 13 299 8.0 14.5 0.00 0.03 0.03 87 1018.9
20260508192544 13 305 6.4 11.3 0.00 0.03 0.03 88 1018.8
20260508192044 12 301 4.8 12.9 0.00 0.03 0.03 89 1018.9
20260508191549 12 306 6.4 14.5 0.00 0.03 0.03 89 1018.8
20260508191043 12 306 6.4 14.5 0.00 0.03 0.03 89 1018.9
20260508190545 12 298 6.4 14.5 0.00 0.03 0.03 90 1019.1
20260508190047 12 310 8.0 16.1 0.00 0.03 0.03 90 1019.0
20260508185544 12 298 8.0 16.1 0.00 0.03 0.03 91 1019.1
20260508185044 12 300 9.7 16.1 0.00 0.03 0.03 92 1019.2
20260508184546 12 325 9.7 16.1 0.00 0.03 0.03 93 1019.2
20260508184045 12 308 11.3 16.1 0.00 0.03 0.03 94 1019.1
20260508183544 11 318 9.7 16.1 0.00 0.03 0.03 95 1019.2
20260508183059 11 313 8.0 14.5 0.00 0.03 0.03 95 1019.2
20260508182544 11 309 8.0 16.1 0.00 0.03 0.03 96 1019.1
20260508182044 11 321 8.0 16.1 0.00 0.03 0.03 96 1019.2
20260508181553 11 311 9.7 16.1 0.00 0.03 0.03 96 1019.2
20260508181044 11 305 9.7 14.5 0.00 0.03 0.03 96 1019.3
20260508180545 11 299 8.0 14.5 0.00 0.03 0.03 97 1019.2
20260508180058 10 308 8.0 12.9 0.00 0.03 0.03 96 1019.3
20260508175544 10 310 6.4 14.5 0.00 0.03 0.03 97 1019.3
20260508175045 10 302 6.4 14.5 0.00 0.03 0.03 97 1019.3
20260508174602 10 308 8.0 14.5 0.00 0.03 0.03 96 1019.2
20260508174044 10 300 6.4 12.9 0.00 0.03 0.03 96 1019.2
20260508173546 10 308 6.4 14.5 0.00 0.03 0.03 97 1019.2
20260508173048 10 304 6.4 14.5 0.00 0.03 0.03 97 1019.2
20260508172544 10 310 6.4 14.5 0.00 0.03 0.03 96 1019.3
20260508172044 10 311 6.4 14.5 0.00 0.03 0.03 96 1019.2
20260508171547 10 309 6.4 12.9 0.00 0.03 0.03 96 1019.3
20260508171051 10 322 4.8 11.3 0.00 0.03 0.03 97 1019.3
20260508170544 10 306 4.8 11.3 0.00 0.03 0.03 97 1019.3
20260508170048 10 313 4.8 8.0 0.00 0.03 0.03 96 1019.2
20260508165546 9 304 1.6 8.0 0.00 0.03 0.03 96 1019.1
20260508165044 9 304 3.2 8.0 0.00 0.03 0.03 97 1018.9
20260508164603 9 302 3.2 8.0 0.00 0.03 0.03 96 1019.0
20260508164044 9 316 3.2 8.0 0.00 0.03 0.03 96 1019.1
20260508163547 8 315 3.2 6.4 0.00 0.03 0.03 96 1019.0
20260508163053 8 329 3.2 6.4 0.00 0.03 0.03 96 1019.0
20260508162544 8 331 3.2 6.4 0.00 0.03 0.03 96 1018.8
20260508162045 8 333 3.2 8.0 0.00 0.03 0.03 96 1018.9
20260508161553 8 313 3.2 9.7 0.00 0.03 0.03 96 1018.9
20260508161044 8 321 4.8 11.3 0.00 0.03 0.03 96 1018.9
20260508160547 8 309 4.8 11.3 0.00 0.03 0.03 96 1018.9
20260508160051 7 313 6.4 11.3 0.00 0.03 0.03 96 1018.9
20260508155549 7 311 4.8 11.3 0.00 0.03 0.03 96 1018.7
20260508155045 7 311 6.4 11.3 0.00 0.03 0.03 96 1018.6
20260508154553 7 317 4.8 8.0 0.00 0.03 0.03 96 1018.7
20260508154044 7 314 4.8 14.5 0.00 0.03 0.03 96 1018.7
20260508153545 7 294 6.4 14.5 0.00 0.03 0.03 96 1018.7
20260508153050 7 304 8.0 14.5 0.00 0.03 0.03 96 1018.7
20260508152545 7 311 6.4 11.3 0.00 0.03 0.03 96 1018.6
20260508152044 7 312 6.4 12.9 0.00 0.03 0.03 96 1018.6
20260508151554 7 312 6.4 16.1 0.00 0.03 0.03 96 1018.6
20260508151043 7 313 9.7 16.1 0.03 0.03 0.03 96 1018.6
20260508150544 7 306 9.7 16.1 0.03 0.03 0.03 96 1018.6
20260508150056 6 321 9.7 14.5 0.03 0.03 0.03 96 1018.5
20260508145543 7 309 9.7 17.7 0.03 0.03 0.03 96 1018.6
20260508145045 6 306 9.7 20.9 0.03 0.03 0.03 96 1018.6
20260508144555 6 321 14.5 20.9 0.03 0.03 0.03 96 1018.7
20260508144043 6 307 16.1 20.9 0.03 0.03 0.03 96 1018.5
20260508143542 6 315 14.5 20.9 0.03 0.03 0.03 96 1018.7
20260508143107 6 301 12.9 20.9 0.03 0.03 0.03 96 1018.7
20260508142544 6 309 14.5 20.9 0.03 0.03 0.03 96 1018.6
20260508142044 6 302 14.5 22.5 0.03 0.03 0.03 96 1018.4
20260508141555 6 299 16.1 22.5 0.03 0.03 0.03 96 1018.3
20260508141043 6 298 14.5 20.9 0.00 0.00 0.00 96 1018.2
20260508140543 6 298 12.9 19.3 0.00 0.00 0.00 96 1018.2
20260508140103 6 316 12.9 19.3 0.00 0.00 0.00 96 1018.1
20260508135544 6 300 11.3 16.1 0.00 0.00 0.00 96 1018.2
20260508135043 6 299 8.0 17.7 0.00 0.00 0.00 96 1018.1
20260508134555 6 300 11.3 22.5 0.00 0.00 0.00 96 1018.0
20260508134044 6 296 14.5 22.5 0.00 0.00 0.00 96 1018.0
20260508133543 6 315 12.9 22.5 0.00 0.00 0.00 96 1018.0
20260508133051 6 312 14.5 20.9 0.00 0.00 0.00 96 1017.9
20260508132546 6 311 14.5 22.5 0.00 0.00 0.00 96 1017.8
20260508132043 6 304 12.9 22.5 0.00 0.00 0.00 96 1017.7
20260508131552 6 311 14.5 20.9 0.00 0.00 0.00 96 1017.7
20260508131044 6 299 16.1 20.9 0.00 0.00 0.00 96 1017.7
20260508130544 6 298 11.3 17.7 0.00 0.00 0.00 96 1017.6
20260508130050 6 296 8.0 14.5 0.00 0.00 0.00 96 1017.6
20260508125544 6 296 9.7 14.5 0.00 0.00 0.00 96 1017.6
20260508125043 6 299 8.0 12.9 0.00 0.00 0.00 96 1017.6
20260508124552 6 299 4.8 11.3 0.00 0.00 0.00 96 1017.6
20260508124046 6 302 6.4 11.3 0.00 0.00 0.00 96 1017.6
20260508123543 6 299 4.8 14.5 0.00 0.00 0.00 96 1017.6
20260508123051 6 302 4.8 17.7 0.00 0.00 0.00 96 1017.7
20260508122545 6 301 8.0 17.7 0.00 0.00 0.00 96 1017.7
20260508122043 6 301 11.3 17.7 0.00 0.00 0.00 96 1017.7
20260508121548 6 295 12.9 19.3 0.00 0.00 0.00 96 1017.7
20260508121042 6 311 12.9 19.3 0.00 0.00 0.00 96 1017.8
20260508120544 6 304 11.3 17.7 0.00 0.00 0.00 96 1017.8
20260508120052 6 287 11.3 17.7 0.00 0.00 0.00 96 1017.9
20260508115545 6 296 8.0 19.3 0.00 0.00 0.00 96 1017.8
20260508115043 6 319 9.7 19.3 0.00 0.00 0.00 96 1017.7
20260508114604 6 305 11.3 19.3 0.00 0.00 0.00 96 1017.7
20260508114043 6 292 11.3 19.3 0.00 0.00 0.00 96 1017.7
20260508113544 6 303 14.5 19.3 0.00 0.00 0.00 96 1017.5
20260508113107 6 303 11.3 16.1 0.00 0.00 0.00 96 1017.5
20260508112546 6 300 9.7 16.1 0.00 0.00 0.00 96 1017.5
20260508112044 6 306 8.0 14.5 0.00 0.00 0.00 96 1017.5
20260508111600 6 300 9.7 14.5 0.00 0.00 0.00 96 1017.6
20260508111043 6 315 9.7 19.3 0.00 0.00 0.00 96 1017.7
20260508110545 6 292 9.7 19.3 0.00 0.00 0.00 96 1017.8
20260508110051 6 302 11.3 17.7 0.00 0.00 0.00 96 1017.8
20260508105546 6 301 9.7 17.7 0.00 0.00 0.00 96 1017.8
20260508105042 6 307 9.7 17.7 0.00 0.00 0.00 96 1017.9
20260508104553 6 296 9.7 17.7 0.00 0.00 0.00 95 1017.8
20260508104044 6 298 8.0 14.5 0.00 0.00 0.00 95 1017.8
20260508103549 6 315 9.7 16.1 0.00 0.00 0.00 95 1017.8
20260508103050 6 294 8.0 17.7 0.00 0.00 0.00 95 1017.7
20260508102543 6 295 11.3 17.7 0.00 0.00 0.00 95 1017.8
20260508102044 6 322 11.3 17.7 0.00 0.00 0.00 95 1017.8
20260508101553 6 300 11.3 16.1 0.00 0.00 0.00 95 1017.8
20260508101045 6 291 9.7 16.1 0.00 0.00 0.00 95 1017.7
20260508100547 6 315 8.0 14.5 0.00 0.00 0.00 95 1017.7
20260508100217 6 300 9.7 14.5 0.00 0.00 0.00 95 1017.7
20260508095544 6 298 8.0 14.5 0.00 0.00 0.00 95 1017.7
20260508095042 6 301 8.0 14.5 0.00 0.00 0.00 95 1017.7
20260508094553 6 297 3.2 6.4 0.00 0.00 0.00 95 1017.7
20260508094047 6 297 4.8 8.0 0.00 0.00 0.00 95 1017.7
20260508093543 6 296 4.8 8.0 0.00 0.00 0.00 95 1017.6
20260508093051 6 300 4.8 8.0 0.00 0.00 0.00 95 1017.6
20260508092543 6 304 4.8 8.0 0.00 0.00 0.00 95 1017.6
20260508092042 6 306 4.8 6.4 0.00 0.00 0.00 95 1017.6